Tracking 23762 objects as of 21-Oct-2021
HD Live streaming from Space Station
objects crossing your sky now

ARIANE 42P DEB

Track ARIANE 42P DEB now!
10-day predictions


NORAD ID: 47107
Int'l Code: 1992-052N
Perigee: 1,302.8 km
Apogee: 1,403.8 km
Inclination: 66.1 °
Period: 112.6 minutes
Semi major axis: 7724 km
RCS: Unknown
Launch date: August 10, 1992
Source: France (FR)
Launch site: FRENCH GUIANA (FRGUI)

Note: This is SATELLITE DEBRIS
aabbcc
Your satellite tracking list
Your tracking list is empty




NASA's NSSDC Master Catalog

Two Line Element Set (TLE):
1 47107U 92052N   21293.84567576  .00000960  00000-0  45183-2 0  9990
2 47107  66.0640 213.7483 0065363 346.6676  13.2609 12.78834800 88954
Source of the keplerian elements: AFSPC